CW5456 Hansville WA US current weather conditions

sailwx.info

Wind from 145 at 2 knots gusting 12

Air temperature 8.9° C
Dewpoint 7.2° C

Last reported at 2014-Dec-19 02:39 UTC.
Time now 2014-Dec-19 03:11 UTC

Location: N 47°55' W 122°35'.
View on Google Maps.

See reports from other nearby stations

  
Tides and Currents Weather Stations Pressure Air Temp Water Temp Dewpoint Dewpoint Depression Visibility Wind Speed Wind Dir Waves Ship Positions
date/time (UTC)wind fromknots sea level pressurealtimeterstation pressurevisibilityair tempwater tempwave heightnotes
2014-Dec-19 02:39 145 2 gusting 12 8.9
2014-Dec-19 02:34 167 6 gusting 12 8.9
2014-Dec-19 02:19 125 1 gusting 10 8.9
2014-Dec-19 02:09 175 3 gusting 14 9.4
2014-Dec-19 01:59 154 6 gusting 12 9.4
2014-Dec-19 01:54 128 6 gusting 12 9.4
2014-Dec-19 01:49 087 6 gusting 12 9.4
2014-Dec-19 01:34 159 5 gusting 10 9.4
2014-Dec-19 01:29 139 3 gusting 10 9.4
2014-Dec-19 01:24 134 8 gusting 9 9.4
2014-Dec-19 01:19 160 1 gusting 11 9.4
2014-Dec-19 01:14 145 1 gusting 11 9.4
2014-Dec-19 01:09 142 7 gusting 10 9.4
2014-Dec-19 01:04 135 8.9
2014-Dec-19 00:59 105 5 gusting 13 8.9
2014-Dec-19 00:49 178 2 gusting 15 8.9
2014-Dec-19 00:34 158 3 gusting 13 8.9
2014-Dec-19 00:29 173 7 gusting 13 8.9
2014-Dec-19 00:19 137 2 gusting 14 9.4
2014-Dec-19 00:04 215 7 gusting 17 9.4
2014-Dec-18 23:59 166 6 gusting 17 9.4
2014-Dec-18 23:49 190 6 gusting 12 9.4
2014-Dec-18 23:39 134 10 gusting 10 9.4
2014-Dec-18 23:09 157 0 gusting 6 9.4
2014-Dec-18 23:04 161 9.4
2014-Dec-18 22:54 130 1 gusting 3 9.4
2014-Dec-18 22:49 187 2 gusting 7 9.4
2014-Dec-18 22:39 134 5 gusting 7 8.9
2014-Dec-18 22:34 133 2 gusting 8 8.9
2014-Dec-18 22:29 155 2 gusting 8 8.9
2014-Dec-18 22:14 175 3 gusting 11 8.9
2014-Dec-18 22:04 192 6 gusting 10 8.9
2014-Dec-18 21:39 207 1 gusting 8 8.9
2014-Dec-18 21:09 205 5 gusting 7 8.9
2014-Dec-18 20:54 223 3 gusting 6 8.9
2014-Dec-18 20:44 173 2 gusting 6 8.9
2014-Dec-18 20:39 218 1 gusting 6 8.9
2014-Dec-18 20:34 227 0 gusting 7 8.9
2014-Dec-18 20:29 191 8.9
2014-Dec-18 20:19 117 1 gusting 2 8.9
2014-Dec-18 20:09 167 8.9
2014-Dec-18 19:54 129 8.9
2014-Dec-18 19:49 167 1 gusting 3 8.9
2014-Dec-18 19:34 180 1 gusting 3 8.9
2014-Dec-18 19:14 183 0 gusting 5 9.4
2014-Dec-18 19:04 164 1 gusting 5 9.4
2014-Dec-18 18:49 182 5 gusting 6 9.4
2014-Dec-18 18:39 194 1 gusting 7 9.4
2014-Dec-18 18:29 192 6 gusting 17 8.9
2014-Dec-18 18:14 070 2 gusting 10 8.9
2014-Dec-18 18:09 168 2 gusting 10 8.9
2014-Dec-18 18:04 164 2 gusting 10 8.9
2014-Dec-18 17:59 137 0 gusting 10 8.9
2014-Dec-18 17:44 152 1 gusting 11 8.9
2014-Dec-18 17:29 178 2 gusting 9 8.9
2014-Dec-18 17:14 155 8.9
2014-Dec-18 17:09 095 6 gusting 7 8.9
2014-Dec-18 17:04 136 8.3
2014-Dec-18 16:59 130 8.3
2014-Dec-18 16:49 161 5 gusting 9 8.3
2014-Dec-18 16:39 103 1 gusting 10 8.3
2014-Dec-18 16:19 191 1 gusting 6 8.3
2014-Dec-18 16:14 182 5 gusting 10 8.3
2014-Dec-18 16:09 128 2 gusting 10 8.3
2014-Dec-18 15:59 094 8.3
2014-Dec-18 15:54 180 6 gusting 6 8.3
2014-Dec-18 15:44 180 0 gusting 10 8.3
2014-Dec-18 15:29 137 5 gusting 11 7.8
2014-Dec-18 15:24 198 6 gusting 9 7.8
2014-Dec-18 15:19 113 0 gusting 10 7.8
2014-Dec-18 15:09 129 2 gusting 10 7.8
2014-Dec-18 14:59 116 2 gusting 11 7.8
2014-Dec-18 14:49 165 3 gusting 14 7.8
2014-Dec-18 14:39 193 6 gusting 14 7.8
2014-Dec-18 14:34 137 3 gusting 12 7.8
2014-Dec-18 14:24 179 11 gusting 11 7.8
2014-Dec-18 14:14 194 0 gusting 11 7.8
2014-Dec-18 13:59 184 5 gusting 11 7.8
2014-Dec-18 13:54 196 2 gusting 11 7.8
2014-Dec-18 13:39 215 11 gusting 11 8.3
2014-Dec-18 13:34 150 6 gusting 13 8.3
2014-Dec-18 13:29 171 6 gusting 13 8.3
2014-Dec-18 13:14 198 2 gusting 11 8.3
2014-Dec-18 13:04 163 2 gusting 6 8.3
2014-Dec-18 12:54 082 5 gusting 6 8.3
2014-Dec-18 12:49 148 2 gusting 6 8.3
2014-Dec-18 12:44 198 8.3
2014-Dec-18 12:39 169 5 gusting 10 8.3
2014-Dec-18 12:34 167 2 gusting 12 8.3
2014-Dec-18 12:09 157 1 gusting 9 8.3
2014-Dec-18 11:59 170 3 gusting 9 8.3
2014-Dec-18 11:49 101 1 gusting 8 8.3
2014-Dec-18 11:39 069 0 gusting 6 8.3
2014-Dec-18 11:29 129 2 gusting 7 8.3
2014-Dec-18 11:19 159 8.3
2014-Dec-18 11:14 130 1 gusting 6 8.3
2014-Dec-18 11:09 117 8.3
2014-Dec-18 10:59 153 8.3
2014-Dec-18 10:54 094 8.3
2014-Dec-18 10:19 190 8.3
2014-Dec-18 10:04 207 5 gusting 9 8.3
2014-Dec-18 09:44 161 0 gusting 8 8.3
2014-Dec-18 09:39 179 6 gusting 8 8.3
2014-Dec-18 09:34 167 1 gusting 8 8.3
2014-Dec-18 09:14 165 5 gusting 5 7.8
2014-Dec-18 09:04 211 1 gusting 9 7.8
2014-Dec-18 08:59 201 5 gusting 6 7.8
2014-Dec-18 08:39 226 3 gusting 3 7.8
2014-Dec-18 08:24 168 0 gusting 6 7.8
2014-Dec-18 08:14 165 7.8
2014-Dec-18 08:09 167 5 gusting 6 7.8
2014-Dec-18 08:04 214 0 gusting 7 7.8
2014-Dec-18 07:59 142 0 gusting 7 7.8
2014-Dec-18 07:54 040 1 gusting 6 7.8
2014-Dec-18 07:49 196 7.8
2014-Dec-18 07:44 172 0 gusting 6 7.8
2014-Dec-18 07:19 185 7.8
2014-Dec-18 07:14 184 1 gusting 5 7.8
2014-Dec-18 07:09 205 7.8
2014-Dec-18 06:54 129 2 gusting 6 7.8
2014-Dec-18 05:49 167 7.8
2014-Dec-18 05:44 192 3 gusting 3 7.8
2014-Dec-18 05:39 179 7.8
2014-Dec-18 05:34 179 7.8
2014-Dec-18 05:29 180 7.8
2014-Dec-18 05:09 172 7.8
2014-Dec-18 04:49 167 1 gusting 5 7.8
2014-Dec-18 04:44 197 7.8
2014-Dec-18 04:39 167 1 gusting 3 7.8
2014-Dec-18 04:34 201 7.8
2014-Dec-18 04:29 201 7.8
2014-Dec-18 03:59 201 7.8
2014-Dec-18 03:44 201 7.8
2014-Dec-18 03:39 200 7.8
2014-Dec-18 03:29 201 7.8
2014-Dec-18 03:24 201 0 gusting 5 7.8
2014-Dec-18 03:14 163 2 gusting 3 7.8
2014-Dec-18 03:04 194 7.8
2014-Dec-18 02:59 194 7.8
2014-Dec-18 02:49 194 0 gusting 0 7.8
2014-Dec-18 02:39 194 7.8
2014-Dec-18 02:19 194 7.8
2014-Dec-18 02:14 194 7.8
2014-Dec-18 02:09 194 7.8
2014-Dec-18 02:04 194 7.8
2014-Dec-18 01:59 194 0 gusting 1 7.8
2014-Dec-18 01:44 194 7.8
2014-Dec-18 01:39 194 7.8
2014-Dec-18 01:24 194 8.3
2014-Dec-18 01:19 194 8.3
2014-Dec-18 00:54 194 0 gusting 3 8.3
2014-Dec-18 00:44 159 2 gusting 2 8.3
2014-Dec-18 00:24 159 8.3
2014-Dec-18 00:14 159 8.9
2014-Dec-18 00:09 159 8.9
2014-Dec-17 23:59 159 8.9
2014-Dec-17 23:49 159 8.9
2014-Dec-17 23:44 186 8.9
2014-Dec-17 23:34 186 8.9
2014-Dec-17 23:29 182 2 gusting 3 8.9
2014-Dec-17 23:19 165 2 gusting 3 8.9
2014-Dec-17 23:09 134 8.9
2014-Dec-17 22:49 190 8.9
2014-Dec-17 22:44 190 8.9
2014-Dec-17 22:39 190 8.9
2014-Dec-17 22:34 190 8.9
2014-Dec-17 22:29 190 8.9
2014-Dec-17 22:24 190 8.9
2014-Dec-17 22:19 190 0 gusting 1 8.9
2014-Dec-17 22:14 190 8.9
2014-Dec-17 22:09 190 8.9
2014-Dec-17 21:54 190 8.9
2014-Dec-17 21:44 190 8.9
2014-Dec-17 21:39 190 8.9
2014-Dec-17 21:29 190 8.9
2014-Dec-17 21:19 190 8.9
2014-Dec-17 21:04 190 1 gusting 5 8.9
2014-Dec-17 20:54 195 9.4
2014-Dec-17 20:49 190 1 gusting 3 9.4
2014-Dec-17 20:39 188 9.4
2014-Dec-17 20:34 189 9.4
2014-Dec-17 20:04 189 8.9
2014-Dec-17 19:54 120 1 gusting 2 8.9
2014-Dec-17 19:49 119 8.9
2014-Dec-17 19:39 119 8.9
2014-Dec-17 19:34 119 8.9
2014-Dec-17 19:29 190 0 gusting 3 8.9
2014-Dec-17 19:09 190 8.3
2014-Dec-17 19:04 190 8.3
2014-Dec-17 18:54 207 8.3
2014-Dec-17 18:49 207 8.3
2014-Dec-17 18:39 207 1 gusting 1 8.3
2014-Dec-17 18:34 207 1 gusting 1 8.3
2014-Dec-17 18:24 206 7.8
2014-Dec-17 18:19 207 7.8
2014-Dec-17 18:14 207 1 gusting 2 7.8
2014-Dec-17 18:04 206 7.8
2014-Dec-17 17:49 210 7.8
2014-Dec-17 17:44 193 1 gusting 2 7.2
2014-Dec-17 17:39 193 1 gusting 2 7.2
2014-Dec-17 17:29 192 7.2
2014-Dec-17 17:24 171 0 gusting 2 7.2
2014-Dec-17 17:19 171 6.7
2014-Dec-17 16:54 211 6.7
2014-Dec-17 16:34 210 1 gusting 5 6.7
2014-Dec-17 16:29 203 0 gusting 3 6.7
2014-Dec-17 16:14 201 1 gusting 5 6.1
2014-Dec-17 16:09 175 0 gusting 2 6.1
2014-Dec-17 15:49 174 1 gusting 3 6.1
2014-Dec-17 15:39 199 1 gusting 3 6.1
2014-Dec-17 15:34 200 2 gusting 5 6.1
2014-Dec-17 15:29 204 1 gusting 5 6.1
2014-Dec-17 15:24 212 3 gusting 5 6.1
2014-Dec-17 15:19 209 6.1
2014-Dec-17 15:14 237 0 gusting 5 6.1
2014-Dec-17 14:59 186 2 gusting 5 6.1
2014-Dec-17 14:54 194 1 gusting 5 6.1
2014-Dec-17 14:49 196 3 gusting 6 6.1
2014-Dec-17 14:34 205 6.1
2014-Dec-17 14:29 205 2 gusting 3 6.1
2014-Dec-17 14:24 202 1 gusting 5 6.1
2014-Dec-17 14:09 213 6.1
2014-Dec-17 13:49 223 0 gusting 5 6.1
2014-Dec-17 13:44 207 1 gusting 3 6.1
2014-Dec-17 13:24 207 6.1
2014-Dec-17 13:09 199 6.1
2014-Dec-17 12:59 178 1 gusting 2 6.1
2014-Dec-17 12:54 174 0 gusting 2 6.1
2014-Dec-17 12:44 173 0 gusting 2 6.1
2014-Dec-17 12:39 174 6.1
2014-Dec-17 12:34 174 6.1
2014-Dec-17 12:24 174 6.1
2014-Dec-17 12:04 174 6.1
2014-Dec-17 11:44 173 6.1
2014-Dec-17 11:39 174 6.1
2014-Dec-17 11:34 173 6.1
2014-Dec-17 11:24 181 2 gusting 5 6.1
2014-Dec-17 10:59 192 1 gusting 5 6.1
2014-Dec-17 10:49 194 1 gusting 3 6.1
2014-Dec-17 10:44 194 0 gusting 1 6.1
2014-Dec-17 10:34 194 6.1
2014-Dec-17 10:29 194 6.1
2014-Dec-17 10:19 194 1 gusting 2 5.6
2014-Dec-17 10:14 194 1 gusting 2 5.6
2014-Dec-17 10:04 194 5.6
2014-Dec-17 09:59 194 5.6
2014-Dec-17 09:54 194 5.6
2014-Dec-17 09:44 194 1 gusting 1 5.6
2014-Dec-17 09:34 194 5.6
2014-Dec-17 09:24 194 5.6
2014-Dec-17 09:19 194 6.1
2014-Dec-17 09:14 194 6.1
2014-Dec-17 08:59 194 6.1
2014-Dec-17 08:49 194 6.1
2014-Dec-17 08:34 194 2 gusting 2 6.1
2014-Dec-17 08:29 194 2 gusting 2 5.6
2014-Dec-17 08:09 192 1 gusting 5 5.6
2014-Dec-17 07:59 185 2 gusting 3 5.6
2014-Dec-17 07:54 205 2 gusting 5 5.6
2014-Dec-17 07:49 205 2 gusting 5 5.6
2014-Dec-17 07:39 190 2 gusting 3 5.6
2014-Dec-17 07:29 188 2 gusting 5 5.6
2014-Dec-17 07:19 183 2 gusting 5 5.6
2014-Dec-17 07:04 188 2 gusting 2 5.6
2014-Dec-17 06:59 188 1 gusting 3 5.6
2014-Dec-17 06:49 190 1 gusting 3 5.6
2014-Dec-17 06:44 193 2 gusting 3 6.1
2014-Dec-17 06:34 193 1 gusting 2 6.1
2014-Dec-17 06:29 195 6.1
2014-Dec-17 06:24 195 0 gusting 3 6.1
2014-Dec-17 06:04 194 6.1
2014-Dec-17 05:59 194 1 gusting 1 6.1
2014-Dec-17 05:54 193 0 gusting 1 6.1
2014-Dec-17 05:49 194 1 gusting 1 6.1
2014-Dec-17 05:44 194 1 gusting 1 6.1
2014-Dec-17 05:34 194 0 gusting 1 6.1
2014-Dec-17 05:29 194 6.1
2014-Dec-17 05:19 194 1 gusting 2 6.1
2014-Dec-17 05:09 194 1 gusting 3 6.1
2014-Dec-17 05:04 194 1 gusting 3 6.1
2014-Dec-17 04:49 196 0 gusting 3 6.1
2014-Dec-17 04:44 196 1 gusting 3 6.1
2014-Dec-17 04:39 190 0 gusting 2 6.7
2014-Dec-17 04:29 190 0 gusting 3 6.7
2014-Dec-17 04:24 190 2 gusting 3 6.7
2014-Dec-17 04:19 191 6.7
2014-Dec-17 04:14 192 0 gusting 3 6.7
2014-Dec-17 04:09 191 1 gusting 3 6.7
2014-Dec-17 03:54 191 1 gusting 2 6.7
2014-Dec-17 03:49 190 0 gusting 3 6.7
2014-Dec-17 03:34 199 2 gusting 3 6.7
2014-Dec-17 03:14 205 0 gusting 3 6.7
2014-Dec-17 03:09 204 6.7
2014-Dec-17 03:04 187 6.7